Location: ?????
(31.8092°N, 35.2590°E)
Time: 20:27:30
(UTC+00:00)

Cosmos 2360 Rocket - Pass Details

Date: 20 June 2021
Orbit: 835 x 843 km, 71.0° (Epoch: 23 July)

Event Time Altitude Azimuth Distance (km) Brightness Sun altitude
Rises 18:53:52 0° 227° (SW) 3,382 5.3 -21.9°
Reaches altitude 10° 18:56:38 10° 239° (WSW) 2,450 4.7 -22.3°
Maximum altitude 19:01:24 28° 297° (WNW) 1,527 4.1 -22.9°
Drops below altitude 10° 19:06:11 10° 356° (N) 2,455 5.3 -23.5°
Sets 19:09:00 0° 8° (N) 3,391 6.0 -23.9°
